Weather History for Joliet, IL

Change the Weather History Date:

Saturday, May 25, 2013

  Actual Average (KLOT) Record (KLOT)
Temperature  
Mean Temperature 49 °F 63 °F  
Max Temperature 58 °F 74 °F 88 °F (2010)
Min Temperature 41 °F 53 °F 32 °F (1992)
Degree Days  
Heating Degree Days 16 4  
Month to date heating degree days 171  
Since 1 July heating degree days 6165  
Cooling Degree Days 0 2  
Month to date cooling degree days 35  
Year to date cooling degree days 40  
Moisture  
Dew Point 40 °F    
Average Humidity 69    
Maximum Humidity 92    
Minimum Humidity 48    
Precipitation  
Precipitation 0.00 in 0.14 in 2.31 in (2011)
Month to date precipitation 3.44  
Year to date precipitation 13.88  
Sea Level Pressure  
Sea Level Pressure 30.35 in    
Wind  
Wind Speed 2 mph (East)    
Max Wind Speed 9 mph    
Max Gust Speed -    
Visibility 10 miles    
Events Rain    
T = Trace of Precipitation, MM = Missing Value Source: NWS Daily Summary

Daily Weather History Graph

Daily Weather History Graph

Search for Another Location

Airport:

Trip Planner

Search our weather history database for the weather conditions in past years. The results will help you decide how hot, cold, wet, or windy it might be!

Date:

Astronomy

May. 25, 2013 Rise Set
Actual Time 5:25 AM CDT 8:14 PM CDT
Civil Twilight 4:52 AM CDT 8:47 PM CDT
Nautical Twilight 4:11 AM CDT 9:28 PM CDT
Astronomical Twilight 3:23 AM CDT 10:16 PM CDT
Moon 9:02 PM CDT (5/25) 5:51 AM CDT (5/25)
Length of Visible Light 15h 55m
Length of Day
14h 49m
Full, 100% of the Moon is Illuminated
May 25
Full
May 31
Last Quarter
Jun 8
New
Jun 16
First Quarter
Jun 23
Full

Hourly Weather History & Observations

Time (CDT) Temp. Windchill Dew Point Humidity Pressure Visibility Wind Dir Wind Speed Gust Speed Precip Events Conditions
12:15 AM 42.4 °F - 37.0 °F 81% 30.37 in 10.0 mi Calm Calm - N/A   Clear
12:35 AM 41.2 °F - 37.4 °F 86% 30.36 in 10.0 mi Calm Calm - N/A   Clear
12:55 AM 44.6 °F - 34.7 °F 68% 30.36 in 10.0 mi Calm Calm - N/A   Clear
1:15 AM 43.0 °F - 36.7 °F 78% 30.36 in 10.0 mi Calm Calm - N/A   Clear
1:35 AM 42.8 °F - 37.6 °F 82% 30.34 in 10.0 mi Calm Calm - N/A   Clear
1:55 AM 43.7 °F - 36.0 °F 74% 30.34 in 10.0 mi Calm Calm - N/A   Clear
2:15 AM 43.9 °F - 35.2 °F 72% 30.33 in 10.0 mi Calm Calm - N/A   Clear
2:35 AM 43.9 °F 42.3 °F 36.0 °F 74% 30.32 in 10.0 mi ENE 3.5 mph - N/A   Clear
2:55 AM 45.3 °F 44.0 °F 33.6 °F 64% 30.33 in 10.0 mi NNE 3.5 mph - N/A   Clear
3:15 AM 45.0 °F 43.5 °F 34.2 °F 66% 30.34 in 10.0 mi NNE 3.5 mph - N/A   Clear
3:35 AM 44.8 °F - 36.5 °F 73% 30.34 in 10.0 mi Calm Calm - N/A   Clear
3:55 AM 44.6 °F - 36.3 °F 73% 30.35 in 10.0 mi Calm Calm - N/A   Clear
4:15 AM 45.3 °F - 36.5 °F 71% 30.37 in 10.0 mi Calm Calm - N/A   Clear
4:35 AM 44.2 °F - 37.9 °F 79% 30.37 in 10.0 mi Calm Calm - N/A   Scattered Clouds
4:55 AM 45.1 °F - 38.1 °F 76% 30.38 in 10.0 mi Calm Calm - N/A   Scattered Clouds
5:15 AM 45.0 °F - 38.7 °F 79% 30.37 in 10.0 mi Calm Calm - N/A   Scattered Clouds
5:35 AM 45.5 °F 43.2 °F 37.6 °F 74% 30.37 in 10.0 mi NE 4.6 mph - N/A   Clear
5:55 AM 46.0 °F 42.5 °F 36.9 °F 70% 30.35 in 10.0 mi ENE 6.9 mph - N/A   Scattered Clouds
6:15 AM 47.1 °F - 36.0 °F 65% 30.36 in 10.0 mi Calm Calm - N/A Rain Light Rain
6:35 AM 46.8 °F - 37.8 °F 71% 30.37 in 10.0 mi ENE 3.5 mph - N/A Rain Light Rain
6:55 AM 47.1 °F - 37.6 °F 69% 30.39 in 10.0 mi Calm Calm - N/A   Mostly Cloudy
7:15 AM 47.8 °F - 38.7 °F 70% 30.40 in 10.0 mi SW 3.5 mph - N/A   Overcast
7:35 AM 48.0 °F - 39.6 °F 73% 30.41 in 10.0 mi Calm Calm - N/A   Overcast
7:55 AM 48.4 °F - 40.1 °F 73% 30.41 in 10.0 mi WSW 3.5 mph - N/A   Overcast
8:15 AM 48.6 °F - 41.0 °F 75% 30.41 in 10.0 mi Calm Calm - N/A   Overcast
8:35 AM 48.6 °F - 41.4 °F 76% 30.41 in 10.0 mi West 4.6 mph - N/A   Overcast
8:55 AM 48.9 °F - 41.4 °F 75% 30.41 in 10.0 mi Calm Calm - N/A   Scattered Clouds
9:15 AM 49.1 °F - 40.6 °F 73% 30.42 in 10.0 mi Calm Calm - N/A   Scattered Clouds
9:35 AM 49.8 °F - 39.9 °F 69% 30.41 in 10.0 mi Calm Calm - N/A   Scattered Clouds
9:55 AM 50.9 °F - 40.8 °F 68% 30.40 in 10.0 mi Calm Calm - N/A   Scattered Clouds
10:15 AM 51.3 °F - 40.5 °F 67% 30.39 in 10.0 mi Calm Calm - N/A   Scattered Clouds
10:35 AM 51.4 °F - 39.0 °F 63% 30.40 in 10.0 mi Calm Calm - N/A   Mostly Cloudy
10:55 AM 51.8 °F - 39.6 °F 63% 30.39 in 10.0 mi South 3.5 mph - N/A   Mostly Cloudy
11:15 AM 52.5 °F - 37.6 °F 57% 30.40 in 10.0 mi ESE 4.6 mph - N/A   Overcast
11:35 AM 52.5 °F - 37.2 °F 56% 30.41 in 10.0 mi Calm Calm - N/A   Overcast
11:55 AM 52.7 °F - 37.4 °F 56% 30.41 in 10.0 mi Calm Calm - N/A   Overcast
12:15 PM 53.1 °F - 36.1 °F 53% 30.40 in 10.0 mi East 3.5 mph - N/A   Overcast
12:35 PM 54.1 °F - 37.6 °F 54% 30.39 in 10.0 mi East 5.8 mph - N/A   Mostly Cloudy
12:55 PM 54.9 °F - 38.3 °F 54% 30.37 in 10.0 mi East 6.9 mph - N/A   Scattered Clouds
1:15 PM 56.3 °F - 38.5 °F 51% 30.35 in 10.0 mi ESE 5.8 mph - N/A   Scattered Clouds
1:35 PM 57.0 °F - 37.2 °F 48% 30.34 in 10.0 mi East 8.1 mph - N/A   Scattered Clouds
1:55 PM 57.2 °F - 37.4 °F 48% 30.34 in 10.0 mi East 8.1 mph - N/A   Mostly Cloudy
2:15 PM 56.7 °F - 38.3 °F 50% 30.34 in 10.0 mi ESE 5.8 mph - N/A   Overcast
2:35 PM 56.8 °F - 38.7 °F 51% 30.33 in 10.0 mi ESE 6.9 mph - N/A   Overcast
2:55 PM 56.7 °F - 37.4 °F 49% 30.31 in 10.0 mi ESE 6.9 mph - N/A   Mostly Cloudy
3:15 PM 57.2 °F - 38.1 °F 49% 30.30 in 10.0 mi ESE 6.9 mph - N/A   Scattered Clouds
3:35 PM 57.4 °F - 39.4 °F 51% 30.29 in 10.0 mi East 9.2 mph - N/A   Scattered Clouds
3:55 PM 57.7 °F - 38.1 °F 48% 30.30 in 10.0 mi ENE 4.6 mph - N/A   Scattered Clouds
4:15 PM 57.2 °F - 39.6 °F 52% 30.31 in 10.0 mi East 6.9 mph - N/A   Scattered Clouds
4:35 PM 57.2 °F - 41.4 °F 55% 30.32 in 10.0 mi East 4.6 mph - N/A Rain Light Rain
4:55 PM 57.0 °F - 43.3 °F 60% 30.32 in 10.0 mi NE 9.2 mph - N/A Rain Light Rain
5:15 PM 55.6 °F - 46.2 °F 71% 30.32 in 10.0 mi NE 5.8 mph - N/A Rain Rain
5:35 PM 55.4 °F - 46.0 °F 71% 30.32 in 10.0 mi ENE 3.5 mph - N/A   Drizzle
5:55 PM 54.9 °F - 45.0 °F 69% 30.32 in 10.0 mi NE 5.8 mph - N/A Rain Light Rain
6:15 PM 55.4 °F - 45.1 °F 68% 30.31 in 10.0 mi East 4.6 mph - N/A Rain Light Rain
6:35 PM 55.4 °F - 45.7 °F 70% 30.31 in 10.0 mi Calm Calm - N/A   Light Drizzle
6:55 PM 55.6 °F - 46.0 °F 70% 30.31 in 10.0 mi Calm Calm - N/A   Clear
7:15 PM 55.4 °F - 46.6 °F 72% 30.31 in 10.0 mi Calm Calm - N/A   Clear
7:35 PM 55.0 °F - 45.3 °F 70% 30.32 in 10.0 mi Calm Calm - N/A   Scattered Clouds
7:55 PM 53.8 °F - 48.6 °F 82% 30.31 in 10.0 mi Calm Calm - N/A   Mostly Cloudy
8:15 PM 53.1 °F - 48.9 °F 86% 30.31 in 10.0 mi Calm Calm - N/A   Overcast
8:35 PM 53.4 °F - 47.8 °F 81% 30.31 in 10.0 mi Calm Calm - N/A   Overcast
8:55 PM 52.2 °F - 48.2 °F 86% 30.32 in 10.0 mi Calm Calm - N/A   Overcast
9:15 PM 52.7 °F - 47.8 °F 84% 30.32 in 10.0 mi Calm Calm - N/A   Overcast
9:35 PM 51.8 °F - 47.7 °F 86% 30.32 in 10.0 mi Calm Calm - N/A   Overcast
9:55 PM 51.1 °F - 46.0 °F 83% 30.32 in 10.0 mi Calm Calm - N/A   Scattered Clouds
10:15 PM 48.4 °F - 43.0 °F 82% 30.33 in 10.0 mi East 3.5 mph - N/A   Clear
10:35 PM 47.8 °F - 42.8 °F 83% 30.33 in 10.0 mi Calm Calm - N/A   Clear
10:55 PM 46.0 °F - 43.7 °F 92% 30.33 in 10.0 mi Calm Calm - N/A   Clear
11:15 PM 45.3 °F 43.0 °F 42.1 °F 88% 30.32 in 10.0 mi East 4.6 mph - N/A   Clear
11:35 PM 46.0 °F 42.5 °F 41.2 °F 83% 30.31 in 10.0 mi ENE 6.9 mph - N/A   Clear
11:55 PM 46.8 °F - 41.4 °F 81% 30.31 in 10.0 mi ENE 6.9 mph - N/A   Scattered Clouds